#timestamp,LO_Frequency,Hit,StdDev 
1534071615.7,286047002.0,N
1534071635.5,286047001.8,N
1534071655.3,286047002.5,N
1534071675.2,286047002.6,N
1534071695.0,286047002.5,N
1534071695.9,286047002.5,N
1534071715.8,286047002.5,N
1534071735.6,286047002.2,N
1534071755.4,286047001.6,N
1534071775.3,286046999.7,N
1534071795.1,286047002.2,N
1534071815.9,286047002.5,N
1534071835.7,286047002.5,N
1534071855.5,286047002.4,N
1534071875.4,286047002.6,N
1534071895.2,286047001.8,N
1534071915.0,286047002.0,N
1534071915.9,286047002.0,N
1534071935.8,286047001.9,N
1534071955.6,286047002.0,N
1534071975.5,286047001.9,N
1534071995.3,286047001.6,N
1534072015.1,286047002.1,N
1534072035.9,286047001.8,N
1534072055.7,286047004.2,Y
1534072075.6,286047000.0,P
1534072095.4,286047000.1,N
1534072115.2,286047002.7,N
1534072135.1,286046999.9,N
1534072136.0,286046999.9,N
1534072155.8,286047002.7,N
1534072175.6,286047002.3,N
1534072195.5,286046999.8,N
1534072215.3,286046999.8,N
1534072235.2,286047001.6,N
1534072255.9,286047001.5,N
1534072275.7,286047002.5,N
1534072295.6,286047001.9,N
1534072315.4,286047002.1,N
1534072335.2,286047002.4,N
1534072355.1,286047001.8,N
1534072356.0,286047001.8,N
1534072375.8,286047002.5,N
1534072395.7,286047002.6,N
1534072415.5,286047001.8,N
1534072435.3,286047001.9,N
1534072455.2,286047001.9,N
1534072475.9,286047001.7,N
1534072495.0,286047001.4,N
1534072495.9,286047001.4,N
1534072515.8,286047001.6,N
1534072535.6,286047001.9,N
1534072555.5,286047002.0,N
1534072575.3,286047001.6,N
1534072595.1,286047001.6,N
1534072615.9,286047002.1,N
1534072635.7,286047004.3,Y
1534072655.5,286047001.9,P
1534072675.4,286047001.5,P
1534072695.2,286047001.9,P
1534072715.1,286047002.2,Y
1534072716.0,286047002.2,P
1534072735.8,286047000.6,N
1534072755.6,286047000.6,N
1534072775.5,286047001.0,N
1534072795.3,286047000.6,N
1534072815.2,286047000.6,N
1534072835.9,286047000.3,N
1534072855.7,286047000.6,N
1534072875.6,286047002.8,Y
1534072895.4,286047000.0,P
1534072915.3,286047000.4,N
1534072935.1,286046999.9,N
1534072936.0,286046999.9,N
1534072955.8,286047000.4,N
1534072975.7,286047000.3,N
1534072995.5,286046998.1,Y
1534073015.4,286047000.9,P
1534073035.2,286047001.1,P
1534073055.0,286047000.7,N
1534073055.9,286047000.7,N
1534073075.8,286047000.0,N
1534073095.6,286047000.4,N
1534073115.4,286047000.8,N
1534073135.3,286047000.7,N
1534073155.1,286047000.4,N
1534073175.9,286047000.5,N
1534073195.7,286047001.0,Y
1534073215.5,286047001.2,P
1534073235.4,286047001.2,P
1534073255.2,286046998.1,P
1534073275.0,286047001.2,N
1534073275.9,286047001.2,N
1534073295.8,286046998.3,N
1534073315.6,286046998.5,N
1534073335.5,286046998.4,N
1534073355.3,286046998.9,N
1534073375.1,286046999.2,N
1534073395.9,286046998.3,N
1534073415.7,286046998.9,N
1534073435.5,286046999.1,N
1534073455.4,286046999.0,N
1534073475.2,286046998.9,N
1534073495.0,286047001.1,N
1534073496.0,286047001.1,N
1534073515.8,286046998.8,N
1534073535.6,286046999.1,N
1534073555.5,286046999.5,N
1534073575.3,286046999.2,N
1534073595.1,286046996.5,Y
1534073615.9,286046999.0,P
1534073635.7,286046998.5,P
1534073655.4,286046998.9,N
1534073675.2,286046999.0,N
1534073695.1,286047001.1,Y
1534073696.0,286047001.1,P
1534073715.8,286047000.4,N
1534073735.6,286047000.6,N
1534073755.5,286047001.1,N
1534073775.3,286046998.4,N
1534073795.1,286047000.8,N
1534073815.9,286047000.9,N
1534073835.7,286047000.8,N
1534073855.6,286047000.6,N
1534073875.4,286047000.5,N
1534073895.2,286047000.3,N
1534073915.1,286047000.9,N
1534073916.0,286047000.9,N
1534073935.8,286047001.0,N
1534073955.7,286046998.5,N
1534073975.5,286046999.9,N
1534073995.3,286047001.0,N
1534074015.2,286047001.0,N
1534074035.0,286047001.2,N
1534074035.9,286047001.2,N
1534074055.8,286046998.1,N
1534074075.6,286047000.9,N
1534074095.4,286046998.1,N
1534074115.3,286047000.7,N
1534074135.1,286047000.5,N
1534074155.8,286046998.5,N
1534074175.7,286047001.0,N
1534074195.5,286046998.1,N
1534074215.4,286046999.0,N
1534074235.2,286046998.1,N
1534074255.0,286046999.3,N
1534074255.9,286046999.3,N
1534074275.8,286046998.9,N
1534074295.6,286046998.4,N
1534074315.4,286046998.6,N
1534074335.3,286046996.7,N
1534074355.1,286046996.5,N
1534074375.9,286046999.5,N
1534074395.7,286046996.6,N
1534074415.5,286046994.9,Y
1534074435.4,286046998.0,P
1534074455.2,286046995.2,P
1534074475.1,286046997.9,N
1534074476.0,286046997.9,N
1534074495.8,286046995.6,Y
1534074515.6,286046999.1,P
1534074535.5,286046998.9,N
1534074555.3,286046996.6,P
1534074575.1,286046997.0,Y
1534074595.9,286046998.9,P
1534074615.7,286046998.4,P
1534074635.6,286046996.9,P
1534074655.4,286046996.6,Y
1534074675.2,286046998.1,P
1534074695.1,286046998.5,P
1534074696.0,286046998.5,P
1534074715.8,286046999.3,Y
1534074735.7,286046998.5,P
1534074755.5,286046999.4,P
1534074775.3,286046999.0,N
1534074795.2,286046996.5,Y
1534074815.0,286046998.3,P
1534074815.9,286046998.3,P
1534074835.8,286046998.1,P
1534074855.6,286046998.3,Y
1534074875.4,286047000.9,P
1534074895.3,286047000.6,N
1534074915.1,286047000.5,N
1534074935.8,286047001.2,N
1534074955.7,286047000.8,N
1534074975.5,286047000.0,N
1534074995.4,286047000.6,N
1534075015.2,286047000.7,N
1534075035.0,286047000.8,N
1534075035.9,286047000.8,N
1534075055.8,286046998.8,N
1534075075.6,286046998.3,N
1534075095.4,286046999.3,N
1534075115.3,286046999.3,N
1534075135.1,286046999.0,N
1534075155.9,286046998.4,N
1534075175.7,286046998.7,N
1534075195.5,286046998.7,N
